BEIDOU-3 M17 (C36) (43706 NORAD) Tracking and Keplerian Element Data

This shows tracking and keplerian element data for the satellite.

Feedback or suggestion? Click here.




ElementValue
Catalog43706
NameBEIDOU-3 M17 (C36)
Epoch Orbit4225
Epoch Day34.47734107
Epoch Year2025
RAAN199.2156
Inclination54.195
Eccentricity0.0006123
Argument of Perigee296.1773
Mean Anonmoly63.7308
Mean Motion1.86228065
Decay Rate9.3E-07
L11 43706U 18093A 25034.47734107 .00000093 00000+0 00000+0 0 9998
L22 43706 54.1950 199.2156 0006123 296.1773 63.7308 1.86228065 42254



Live tracking and technical data element details for BEIDOU-3 M17 (C36) (NORAD 43706). BEIDOU-3 M17 (C36) can be tracked NOW for your location showing map with azimuth and elevation plus other details from your city location.







IsCatalogInMostPopularTable: catalog: 43706, numindb: 352
Update: records affected: 1



GetName: 43706 BEIDOU-3 M17 (C36)

Hit Count: updated at: Thu, 22 May 2025 02:49:28 GMT